Weather History for Sandberg, CA

Change the Weather History Date:

Tuesday, December 31, 2013

  Actual Average Record
Temperature  
Mean Temperature 58 °F 42 °F  
Max Temperature 68 °F 48 °F 68 °F (2013)
Min Temperature 48 °F 37 °F 20 °F (1974)
Degree Days  
Heating Degree Days 7 23  
Month to date heating degree days 522 701  
Since 1 July heating degree days 1076 1481  
Cooling Degree Days 0 0  
Month to date cooling degree days 0 0  
Year to date cooling degree days 1565 998  
Growing Degree Days 8 (Base 50)    
Moisture  
Dew Point -1 °F    
Average Humidity 11    
Maximum Humidity 15    
Minimum Humidity 6    
Precipitation  
Precipitation 0.00 in 0.10 in 0.68 in (2004)
Month to date precipitation 0.08 2.25  
Year to date precipitation 3.69 12.33  
Since 1 July precipitation 0.78 3.85  
Sea Level Pressure  
Sea Level Pressure 30.13 in    
Wind  
Wind Speed 9 mph (NNE)    
Max Wind Speed 20 mph    
Max Gust Speed 23 mph    
Visibility 10 miles    
Events      
T = Trace of Precipitation, MM = Missing Value Source: NWS Daily Summary

Daily Weather History Graph

Daily Weather History Graph

Search for Another Location

Airport:

Trip Planner

Search our weather history database for the weather conditions in past years. The results will help you decide how hot, cold, wet, or windy it might be!

Date:

Astronomy

Dec. 31, 2013 Rise Set
Actual Time 7:02 AM PST 4:54 PM PST
Civil Twilight 6:34 AM PST 5:22 PM PST
Nautical Twilight 6:02 AM PST 5:53 PM PST
Astronomical Twilight 5:31 AM PST 6:24 PM PST
Moon 6:01 AM PST (12/31) 4:33 PM PST (12/31)
Length of Visible Light 10h 48m
Length of Day
9h 52m
Waning Crescent, 1% of the Moon is Illuminated
Dec 31
Waning Crescent
Jan 1
New
Jan 7
First Quarter
Jan 15
Full
Jan 23
Last Quarter

Hourly Weather History & Observations

Time (PST) Temp. Dew Point Humidity Pressure Visibility Wind Dir Wind Speed Gust Speed Precip Events Conditions
12:48 AM 53.1 °F 3.9 °F 14% 30.17 in 10.0 mi North 10.4 mph - N/A   Clear
1:48 AM 53.1 °F 1.9 °F 12% 30.17 in 10.0 mi NNW 13.8 mph - N/A   Clear
2:48 AM 53.1 °F -0.9 °F 11% 30.14 in 10.0 mi NNE 5.8 mph - N/A   Clear
3:48 AM 53.1 °F 1.0 °F 12% 30.14 in 10.0 mi NE 4.6 mph - N/A   Clear
4:48 AM 52.0 °F -0.0 °F 12% 30.15 in 10.0 mi NNE 5.8 mph - N/A   Clear
5:48 AM 50.0 °F 1.9 °F 14% 30.16 in 10.0 mi NE 9.2 mph - N/A   Clear
6:48 AM 53.1 °F -0.9 °F 11% 30.16 in 10.0 mi NE 8.1 mph - N/A   Clear
7:48 AM 57.0 °F -4.0 °F 8% 30.17 in 10.0 mi NE 6.9 mph - N/A   Clear
8:48 AM 59.0 °F -6.0 °F 7% 30.18 in 10.0 mi NNE 5.8 mph - N/A   Clear
9:48 AM 63.0 °F -7.1 °F 6% 30.18 in 10.0 mi NE 5.8 mph - N/A   Clear
10:48 AM 66.0 °F -4.0 °F 6% 30.14 in 10.0 mi NE 6.9 mph - N/A   Clear
11:48 AM 66.9 °F -2.9 °F 6% 30.12 in 10.0 mi NE 6.9 mph - N/A   Clear
12:48 PM 66.0 °F -2.0 °F 7% 30.09 in 10.0 mi NNE 9.2 mph 18.4 mph N/A   Clear
1:48 PM 64.9 °F -4.0 °F 6% 30.08 in 10.0 mi North 6.9 mph - N/A   Clear
2:48 PM 62.1 °F -2.0 °F 8% 30.08 in 10.0 mi North 10.4 mph 18.4 mph N/A   Clear
3:48 PM 60.1 °F -0.9 °F 9% 30.08 in 10.0 mi North 15.0 mph 21.9 mph N/A   Clear
4:48 PM 55.0 °F -0.0 °F 11% 30.10 in 10.0 mi North 16.1 mph - N/A   Clear
5:48 PM 55.9 °F -6.0 °F 8% 30.11 in 10.0 mi NE 6.9 mph - N/A   Clear
6:48 PM 57.0 °F -8.0 °F 7% 30.10 in 10.0 mi North 6.9 mph - N/A   Clear
7:48 PM 52.0 °F -2.0 °F 11% 30.10 in 10.0 mi NNE 8.1 mph - N/A   Clear
8:48 PM 52.0 °F -2.9 °F 10% 30.11 in 10.0 mi NE 9.2 mph - N/A   Clear
9:48 PM 50.0 °F 3.0 °F 15% 30.11 in 10.0 mi NE 10.4 mph - N/A   Clear
10:48 PM 48.9 °F 3.9 °F 16% 30.10 in 10.0 mi NE 11.5 mph - N/A   Clear
11:48 PM 50.0 °F 1.9 °F 14% 30.10 in 10.0 mi NE 11.5 mph 17.3 mph N/A   Clear